Simultaneous Nadir Overpasses (SNOs) Predictions

Prediction of SNOs between NOAA-21 and LANDSAT-8 Satellite Orbit:

Table of predicted SNOs for the next 14.0 days since TLE Epoch: 3/2/2024
Index Date (NOAA-21) Time (NOAA-21) Lat,Lon (NOAA-21) SZA (NOAA-21 ) Date (LANDSAT-8) Time (LANDSAT-8) Lat,Lon (LANDSAT-8) SZA (LANDSAT-8 ) Distance(km) Time Diff (sec)
1 03/04/2024 07:09:25 70.46, 68.04 76.74 03/04/2024 07:10:36 70.35, 69.05 76.58 39.47 71
2 03/04/2024 07:59:59 -69.95,-123.85 103.82 03/04/2024 08:00:11 -69.96,-123.89 103.82 1.51 12
3 03/04/2024 08:50:44 69.88, 43.56 76.10 03/04/2024 08:49:38 69.86, 43.62 76.08 3.32 66
4 03/06/2024 23:26:15 70.03,-175.53 75.24 03/06/2024 23:27:07 70.01,-175.55 75.21 2.03 52
5 03/07/2024 00:16:57 -69.94, -8.07 104.88 03/07/2024 00:16:36 -69.95, -8.01 104.86 2.90 21
6 03/07/2024 01:07:25 68.97, 160.63 74.10 03/07/2024 01:06:18 69.02, 158.39 74.25 89.44 67
7 03/09/2024 14:52:46 -70.98, 131.39 104.79 03/09/2024 14:53:52 -70.85, 133.92 105.04 93.21 66
8 03/09/2024 15:43:13 69.98, -59.70 74.14 03/09/2024 15:43:33 69.98, -59.71 74.13 0.49 20
9 03/09/2024 16:33:55 -69.88, 107.77 105.99 03/09/2024 16:33:03 -69.86, 107.76 106.00 2.24 52
10 03/12/2024 07:09:27 -70.05,-111.35 106.84 03/12/2024 07:10:32 -70.03,-111.40 106.88 2.98 65
11 03/12/2024 08:00:11 69.94, 56.13 73.03 03/12/2024 07:59:59 69.92, 56.10 73.01 2.45 12
12 03/12/2024 08:50:46 -69.47,-135.86 107.48 03/12/2024 08:49:34 -69.53,-136.80 107.37 37.31 72
13 03/14/2024 23:26:25 -70.01, 4.47 107.95 03/14/2024 23:26:57 -70.00, 4.46 107.97 1.37 32
14 03/15/2024 00:17:09 69.90, 171.94 71.93 03/15/2024 00:16:24 69.89, 171.95 71.92 1.99 45



Historial Predications of SNOs between NOAA-21 and LANDSAT-8
